Time,TemperatureF,DewpointF,PressureIn,WindDirection,WindDirectionDegrees,WindSpeedMPH,WindSpeedGustMPH,Humidity,HourlyPrecipIn,Conditions,Clouds,dailyrainin,SoftwareType,DateUTC
2013-10-03 00:04:00,68.0,67.0,30.10,SE,131,0.0,0.0,96,0.00,,,0.00,weatherlink.com 1.10,2013-10-03 04:04:00,
2013-10-03 00:19:00,68.0,67.0,30.10,SE,131,0.0,1.0,96,0.00,,,0.00,weatherlink.com 1.10,2013-10-03 04:19:00,
2013-10-03 00:34:00,67.9,67.0,30.10,SE,131,0.0,0.0,96,0.00,,,0.00,weatherlink.com 1.10,2013-10-03 04:34:00,
2013-10-03 00:49:00,67.7,67.0,30.10,SE,131,0.0,0.0,96,0.00,,,0.00,weatherlink.com 1.10,2013-10-03 04:49:00,
2013-10-03 01:04:00,67.6,67.0,30.10,SE,131,0.0,0.0,96,0.00,,,0.00,weatherlink.com 1.10,2013-10-03 05:04:00,
2013-10-03 01:19:00,67.4,66.0,30.10,SE,131,0.0,0.0,96,0.00,,,0.00,weatherlink.com 1.10,2013-10-03 05:19:00,
2013-10-03 01:34:00,67.4,66.0,30.09,SE,131,0.0,0.0,96,0.00,,,0.00,weatherlink.com 1.10,2013-10-03 05:34:00,
2013-10-03 01:49:00,67.4,67.0,30.09,SE,131,0.0,0.0,97,0.00,,,0.00,weatherlink.com 1.10,2013-10-03 05:49:00,
2013-10-03 02:04:00,67.3,66.0,30.09,SE,131,0.0,0.0,96,0.00,,,0.00,weatherlink.com 1.10,2013-10-03 06:04:00,
2013-10-03 02:19:00,67.2,66.0,30.09,SE,131,0.0,0.0,96,0.00,,,0.00,weatherlink.com 1.10,2013-10-03 06:19:00,
2013-10-03 02:35:00,66.9,66.0,30.09,SE,131,0.0,0.0,97,0.00,,,0.00,weatherlink.com 1.10,2013-10-03 06:35:00,
2013-10-03 02:49:00,66.6,66.0,30.08,SE,131,0.0,0.0,96,0.00,,,0.00,weatherlink.com 1.10,2013-10-03 06:49:00,
2013-10-03 03:04:00,66.3,66.0,30.08,SE,131,0.0,0.0,97,0.00,,,0.00,weatherlink.com 1.10,2013-10-03 07:04:00,
2013-10-03 03:19:00,66.0,65.0,30.08,SE,131,0.0,0.0,97,0.00,,,0.00,weatherlink.com 1.10,2013-10-03 07:19:00,
2013-10-03 03:34:00,66.1,65.0,30.07,SE,131,0.0,0.0,97,0.00,,,0.00,weatherlink.com 1.10,2013-10-03 07:34:00,
2013-10-03 03:49:00,66.2,66.0,30.07,SE,131,0.0,0.0,98,0.00,,,0.00,weatherlink.com 1.10,2013-10-03 07:49:00,
2013-10-03 04:04:00,66.2,66.0,30.07,SE,131,0.0,0.0,98,0.00,,,0.00,weatherlink.com 1.10,2013-10-03 08:04:00,
2013-10-03 04:19:00,66.4,66.0,30.07,SE,131,0.0,0.0,98,0.00,,,0.00,weatherlink.com 1.10,2013-10-03 08:19:00,
2013-10-03 04:34:00,66.4,66.0,30.06,SE,131,0.0,0.0,98,0.00,,,0.00,weatherlink.com 1.10,2013-10-03 08:34:00,
2013-10-03 04:49:00,66.8,66.0,30.07,SE,131,0.0,1.0,98,0.00,,,0.00,weatherlink.com 1.10,2013-10-03 08:49:00,
2013-10-03 05:04:00,66.9,66.0,30.07,SE,131,0.0,0.0,98,0.00,,,0.00,weatherlink.com 1.10,2013-10-03 09:04:00,
2013-10-03 05:19:00,66.8,66.0,30.08,SE,131,0.0,0.0,98,0.00,,,0.00,weatherlink.com 1.10,2013-10-03 09:19:00,
2013-10-03 05:34:00,66.9,66.0,30.07,SE,131,0.0,0.0,98,0.00,,,0.00,weatherlink.com 1.10,2013-10-03 09:34:00,
2013-10-03 05:49:00,66.9,66.0,30.08,SE,131,0.0,0.0,98,0.00,,,0.00,weatherlink.com 1.10,2013-10-03 09:49:00,
2013-10-03 06:04:00,66.8,66.0,30.08,SE,131,0.0,0.0,98,0.00,,,0.00,weatherlink.com 1.10,2013-10-03 10:04:00,
2013-10-03 06:19:00,66.8,66.0,30.09,SE,131,0.0,0.0,98,0.00,,,0.00,weatherlink.com 1.10,2013-10-03 10:19:00,
2013-10-03 06:34:00,66.8,66.0,30.09,SE,129,0.0,0.0,98,0.00,,,0.00,weatherlink.com 1.10,2013-10-03 10:34:00,
2013-10-03 06:49:00,66.5,66.0,30.09,SE,129,0.0,0.0,98,0.00,,,0.00,weatherlink.com 1.10,2013-10-03 10:49:00,
2013-10-03 07:04:00,66.2,66.0,30.09,SE,129,0.0,0.0,98,0.00,,,0.00,weatherlink.com 1.10,2013-10-03 11:04:00,
2013-10-03 07:19:00,65.9,65.0,30.10,SE,129,0.0,1.0,98,0.00,,,0.00,weatherlink.com 1.10,2013-10-03 11:19:00,
2013-10-03 07:34:00,65.8,65.0,30.10,SE,129,0.0,0.0,98,0.00,,,0.00,weatherlink.com 1.10,2013-10-03 11:34:00,
2013-10-03 07:49:00,65.7,65.0,30.10,SE,129,0.0,0.0,98,0.00,,,0.00,weatherlink.com 1.10,2013-10-03 11:49:00,
2013-10-03 08:04:00,65.8,65.0,30.11,SE,129,0.0,0.0,98,0.00,,,0.00,weatherlink.com 1.10,2013-10-03 12:04:00,
2013-10-03 08:19:00,66.3,66.0,30.11,ESE,120,0.0,0.0,99,0.00,,,0.00,weatherlink.com 1.10,2013-10-03 12:19:00,
2013-10-03 08:35:00,66.5,66.0,30.11,ESE,120,0.0,0.0,99,0.00,,,0.00,weatherlink.com 1.10,2013-10-03 12:35:00,
2013-10-03 08:50:00,66.7,66.0,30.11,ESE,120,0.0,0.0,99,0.00,,,0.00,weatherlink.com 1.10,2013-10-03 12:50:00,
2013-10-03 09:05:00,66.9,67.0,30.11,ESE,120,0.0,0.0,99,0.00,,,0.00,weatherlink.com 1.10,2013-10-03 13:05:00,
2013-10-03 09:20:00,67.3,67.0,30.12,ESE,120,0.0,0.0,99,0.00,,,0.00,weatherlink.com 1.10,2013-10-03 13:20:00,
2013-10-03 09:35:00,68.0,68.0,30.12,ESE,120,0.0,0.0,99,0.00,,,0.00,weatherlink.com 1.10,2013-10-03 13:35:00,
2013-10-03 09:50:00,68.5,68.0,30.12,ESE,120,0.0,0.0,99,0.00,,,0.00,weatherlink.com 1.10,2013-10-03 13:50:00,
2013-10-03 10:05:00,68.9,68.0,30.12,ESE,120,0.0,0.0,98,0.00,,,0.00,weatherlink.com 1.10,2013-10-03 14:05:00,
2013-10-03 10:20:00,69.8,69.0,30.12,ESE,120,0.0,0.0,96,0.00,,,0.00,weatherlink.com 1.10,2013-10-03 14:20:00,
2013-10-03 10:35:00,71.5,69.0,30.12,ESE,116,0.0,1.0,92,0.00,,,0.00,weatherlink.com 1.10,2013-10-03 14:35:00,
2013-10-03 10:50:00,73.6,70.0,30.12,ESE,116,0.0,1.0,87,0.00,,,0.00,weatherlink.com 1.10,2013-10-03 14:50:00,
2013-10-03 11:05:00,74.3,69.0,30.13,ESE,116,0.0,0.0,84,0.00,,,0.00,weatherlink.com 1.10,2013-10-03 15:05:00,
2013-10-03 11:20:00,75.1,69.0,30.12,ENE,65,0.0,1.0,82,0.00,,,0.00,weatherlink.com 1.10,2013-10-03 15:20:00,
2013-10-03 11:35:00,76.3,70.0,30.12,NE,43,0.0,3.0,80,0.00,,,0.00,weatherlink.com 1.10,2013-10-03 15:35:00,
2013-10-03 11:50:00,77.4,70.0,30.12,NE,41,0.0,1.0,78,0.00,,,0.00,weatherlink.com 1.10,2013-10-03 15:50:00,
2013-10-03 12:05:00,78.3,67.0,30.11,ENE,65,0.0,2.0,68,0.00,,,0.00,weatherlink.com 1.10,2013-10-03 16:05:00,
2013-10-03 12:20:00,79.6,67.0,30.11,ESE,106,0.0,2.0,66,0.00,,,0.00,weatherlink.com 1.10,2013-10-03 16:20:00,
2013-10-03 12:35:00,80.1,68.0,30.11,SSW,198,0.0,4.0,67,0.00,,,0.00,weatherlink.com 1.10,2013-10-03 16:35:00,
2013-10-03 12:50:00,79.7,67.0,30.11,ESE,105,0.0,3.0,66,0.00,,,0.00,weatherlink.com 1.10,2013-10-03 16:50:00,
2013-10-03 13:05:00,80.6,68.0,30.10,SW,224,0.0,5.0,65,0.00,,,0.00,weatherlink.com 1.10,2013-10-03 17:05:00,
2013-10-03 13:20:00,82.0,68.0,30.10,SSW,199,0.0,3.0,63,0.00,,,0.00,weatherlink.com 1.10,2013-10-03 17:20:00,
2013-10-03 13:36:00,82.4,66.0,30.09,NNE,25,0.0,2.0,58,0.00,,,0.00,weatherlink.com 1.10,2013-10-03 17:36:00,
2013-10-03 13:50:00,82.4,67.0,30.08,SW,214,0.0,3.0,59,0.00,,,0.00,weatherlink.com 1.10,2013-10-03 17:50:00,
2013-10-03 14:05:00,83.3,66.0,30.08,SW,228,0.0,3.0,56,0.00,,,0.00,weatherlink.com 1.10,2013-10-03 18:05:00,
2013-10-03 14:20:00,83.2,66.0,30.07,WNW,289,0.0,2.0,57,0.00,,,0.00,weatherlink.com 1.10,2013-10-03 18:20:00,
2013-10-03 14:35:00,83.0,67.0,30.07,East,99,0.0,2.0,58,0.00,,,0.00,weatherlink.com 1.10,2013-10-03 18:35:00,
2013-10-03 14:50:00,83.1,67.0,30.06,West,279,0.0,3.0,58,0.00,,,0.00,weatherlink.com 1.10,2013-10-03 18:50:00,
2013-10-03 15:06:00,83.7,66.0,30.06,ESE,103,0.0,2.0,56,0.00,,,0.00,weatherlink.com 1.10,2013-10-03 19:06:00,
2013-10-03 15:21:00,84.5,65.0,30.05,WNW,302,2.0,4.0,53,0.00,,,0.00,weatherlink.com 1.10,2013-10-03 19:21:00,
2013-10-03 15:36:00,83.8,65.0,30.05,NW,304,0.0,1.0,54,0.00,,,0.00,weatherlink.com 1.10,2013-10-03 19:36:00,
2013-10-03 15:51:00,83.4,65.0,30.05,NW,309,0.0,2.0,54,0.00,,,0.00,weatherlink.com 1.10,2013-10-03 19:51:00,
2013-10-03 16:06:00,83.1,65.0,30.05,West,280,0.0,3.0,55,0.00,,,0.00,weatherlink.com 1.10,2013-10-03 20:06:00,
2013-10-03 16:21:00,83.4,64.0,30.04,ESE,103,0.0,3.0,52,0.00,,,0.00,weatherlink.com 1.10,2013-10-03 20:21:00,
2013-10-03 16:36:00,83.7,65.0,30.04,WNW,292,0.0,2.0,53,0.00,,,0.00,weatherlink.com 1.10,2013-10-03 20:36:00,
2013-10-03 16:51:00,84.1,65.0,30.04,WSW,245,0.0,2.0,52,0.00,,,0.00,weatherlink.com 1.10,2013-10-03 20:51:00,
2013-10-03 17:06:00,84.4,65.0,30.03,ESE,113,0.0,1.0,53,0.00,,,0.00,weatherlink.com 1.10,2013-10-03 21:06:00,
2013-10-03 17:21:00,82.3,66.0,30.04,North,356,0.0,1.0,59,0.00,,,0.00,weatherlink.com 1.10,2013-10-03 21:21:00,
2013-10-03 17:36:00,79.6,65.0,30.04,North,354,0.0,1.0,61,0.00,,,0.00,weatherlink.com 1.10,2013-10-03 21:36:00,
2013-10-03 17:51:00,78.8,66.0,30.04,WNW,298,0.0,1.0,65,0.00,,,0.00,weatherlink.com 1.10,2013-10-03 21:51:00,
2013-10-03 18:06:00,78.4,65.0,30.04,NW,319,0.0,2.0,64,0.00,,,0.00,weatherlink.com 1.10,2013-10-03 22:06:00,
2013-10-03 18:23:00,77.4,66.0,30.04,North,350,0.0,1.0,68,0.00,,,0.00,weatherlink.com 1.10,2013-10-03 22:23:00,
2013-10-03 18:36:00,76.3,66.0,30.04,ENE,63,0.0,1.0,71,0.00,,,0.00,weatherlink.com 1.10,2013-10-03 22:36:00,
2013-10-03 18:51:00,75.1,67.0,30.04,ENE,63,0.0,0.0,76,0.00,,,0.00,weatherlink.com 1.10,2013-10-03 22:51:00,
2013-10-03 19:06:00,73.7,67.0,30.04,ENE,63,0.0,1.0,79,0.00,,,0.00,weatherlink.com 1.10,2013-10-03 23:06:00,
2013-10-03 19:21:00,72.2,66.0,30.04,ENE,63,0.0,0.0,82,0.00,,,0.00,weatherlink.com 1.10,2013-10-03 23:21:00,
2013-10-03 19:36:00,71.0,66.0,30.04,ENE,63,0.0,1.0,85,0.00,,,0.00,weatherlink.com 1.10,2013-10-03 23:36:00,
2013-10-03 19:51:00,69.8,66.0,30.04,ENE,63,0.0,0.0,87,0.00,,,0.00,weatherlink.com 1.10,2013-10-03 23:51:00,
2013-10-03 20:06:00,69.0,66.0,30.05,ENE,63,0.0,0.0,89,0.00,,,0.00,weatherlink.com 1.10,2013-10-04 00:06:00,
2013-10-03 20:21:00,68.3,65.0,30.05,ENE,63,0.0,0.0,90,0.00,,,0.00,weatherlink.com 1.10,2013-10-04 00:21:00,
2013-10-03 20:36:00,67.9,65.0,30.06,ENE,62,0.0,1.0,91,0.00,,,0.00,weatherlink.com 1.10,2013-10-04 00:36:00,
2013-10-03 20:51:00,67.4,65.0,30.06,ENE,62,0.0,0.0,92,0.00,,,0.00,weatherlink.com 1.10,2013-10-04 00:51:00,
2013-10-03 21:06:00,66.8,65.0,30.06,ENE,62,0.0,0.0,92,0.00,,,0.00,weatherlink.com 1.10,2013-10-04 01:06:00,
2013-10-03 21:21:00,66.3,64.0,30.07,ENE,62,0.0,0.0,93,0.00,,,0.00,weatherlink.com 1.10,2013-10-04 01:21:00,
2013-10-03 21:36:00,65.9,64.0,30.07,ENE,61,0.0,0.0,94,0.00,,,0.00,weatherlink.com 1.10,2013-10-04 01:36:00,
2013-10-03 21:51:00,65.8,64.0,30.07,ENE,61,0.0,1.0,94,0.00,,,0.00,weatherlink.com 1.10,2013-10-04 01:51:00,
2013-10-03 22:08:00,65.4,64.0,30.08,ENE,61,0.0,0.0,95,0.00,,,0.00,weatherlink.com 1.10,2013-10-04 02:08:00,
2013-10-03 22:21:00,65.3,64.0,30.08,ENE,61,0.0,1.0,94,0.00,,,0.00,weatherlink.com 1.10,2013-10-04 02:21:00,
2013-10-03 22:36:00,64.8,63.0,30.09,NE,55,0.0,0.0,95,0.00,,,0.00,weatherlink.com 1.10,2013-10-04 02:36:00,
2013-10-03 22:51:00,64.5,63.0,30.09,NE,54,0.0,0.0,95,0.00,,,0.00,weatherlink.com 1.10,2013-10-04 02:51:00,
2013-10-03 23:06:00,64.0,63.0,30.10,NE,54,0.0,0.0,96,0.00,,,0.00,weatherlink.com 1.10,2013-10-04 03:06:00,
2013-10-03 23:21:00,63.7,63.0,30.10,NE,54,0.0,0.0,96,0.00,,,0.00,weatherlink.com 1.10,2013-10-04 03:21:00,
2013-10-03 23:36:00,63.3,62.0,30.10,NE,55,0.0,0.0,96,0.00,,,0.00,weatherlink.com 1.10,2013-10-04 03:36:00,
2013-10-03 23:51:00,63.0,62.0,30.10,NE,54,0.0,0.0,97,0.00,,,0.00,weatherlink.com 1.10,2013-10-04 03:51:00,